Home   Weather   Paris Estates   Past weeks
Flag for USA

Past Weather in Paris Estates, Maryland, USA — Yesterday and Last 2 Weeks

Now
75 °F

Passing clouds.


Feels Like: 75 °F
Forecast: 90 / 70 °F
Wind: 6 mph from Southwest

Location: Reagan National Airport

Current Time: Jul 2, 2020 at 2:25:00 am

Latest Report: Jul 2, 2020 at 12:52 am


Visibility: 10 mi

Pressure: 29.89 "Hg

Humidity: 85%

Dew Point: 70 °F

Location of Paris EstatesLocation

Past Weather in Paris Estates — Graph

°F

Paris Estates Temperature Yesterday

Maximum temperature yesterday: 86 °F (at 2:52 pm)
Minimum temperature yesterday: 73 °F (at 4:52 am)
Average temperature yesterday: 79 °F

High & Low Weather Summary for the Past Weeks

 TemperatureHumidityPressure
High92 °F (Jun 27, 3:52 pm)97% (Jun 21, 6:38 am)30.23 "Hg (Jun 21, 6:38 am)
Low65 °F (Jun 17, 3:52 am)32% (Jun 26, 1:52 pm)29.66 "Hg (Jun 23, 6:52 pm)
Average77 °F70%29.95 "Hg
* Reported Jun 17 12:52 am — Jul 2 12:52 am, Paris Estates. Weather by CustomWeather, © 2020

Note: Actual official high and low records may vary slightly from our data, if they occured in-between our weather recording intervals... More about our weather records

Paris Estates Weather History for the Previous 24 Hours

Scroll right to see more
 ConditionsComfort  
Time TempWeatherWind HumidityBarometerVisibility
12:52 am
Thu, Jul 2
75 °FPassing clouds.6 mph85%29.89 "Hg10 mi
11:52 pm
Wed, Jul 1
76 °FPassing clouds.No wind80%29.89 "Hg10 mi
10:52 pm77 °FPassing clouds.3 mph74%29.89 "Hg10 mi
9:52 pm76 °FPassing clouds.5 mph80%29.88 "Hg10 mi
8:52 pm77 °FPassing clouds.6 mph79%29.86 "Hg10 mi
7:52 pm78 °FPassing clouds.7 mph76%29.85 "Hg10 mi
6:52 pm80 °FPassing clouds.6 mph74%29.83 "Hg10 mi
5:52 pm77 °FScattered clouds.7 mph79%29.83 "Hg10 mi
5:35 pm77 °FPartly sunny.9 mph79%29.84 "Hg10 mi
4:52 pm85 °FScattered clouds.9 mph59%29.83 "Hg10 mi
3:52 pm85 °FScattered clouds.13 mph59%29.84 "Hg10 mi
2:52 pm86 °FBroken clouds.8 mph51%29.84 "Hg10 mi
1:52 pm85 °FPartly sunny.6 mph55%29.85 "Hg10 mi
12:52 pm85 °FPartly sunny.7 mph57%29.88 "Hg10 mi
11:52 am85 °FScattered clouds.6 mph57%29.89 "Hg10 mi
10:52 am82 °FScattered clouds.3 mph60%29.90 "Hg10 mi
9:52 am78 °FPartly sunny.7 mph71%29.90 "Hg10 mi
8:52 am76 °FBroken clouds.5 mph77%29.90 "Hg10 mi
7:52 am74 °FBroken clouds.5 mph82%29.89 "Hg10 mi
6:52 am73 °FBroken clouds.8 mph84%29.88 "Hg10 mi
5:52 am73 °FPartly sunny.8 mph81%29.87 "Hg10 mi
4:52 am73 °FLight rain. Mostly cloudy.3 mph84%29.87 "Hg10 mi
3:52 am76 °FMostly cloudy.3 mph69%29.88 "Hg10 mi
2:52 am76 °FPassing clouds.8 mph74%29.87 "Hg10 mi
Weather by CustomWeather, © 2020

See weather overview